STARLINK-36445, 67313

Orbit data source: Space-Track

STARLINK-36445, 67313 is a payload satellite owned by SpaceX/Seattle (US) in LEO that was launched on Sun, 04 Jan 2026 UTC via an FALCON 9 launch vehicle from the Air Force Eastern Test Range (AFETR). Payload-class satellites include a variety of spacecraft equipped with specific instruments for various scientific and technological missions. These include communications satellites like Starlink; space stations such as the ISS; scientific satellites like the Hubble; Earth observation satellites from companies like Planet Labs, Umbra, and HawkEye 360; GPS; miniature CubeSats for education and research; and military/defense satellites.

Loading next visibility...
Identifier
67313, 2026-002J
Orbit
LEO
Country
Flag of USUS
Related business
Manufacturer
SpaceX/Seattle
Mission
Operational Commercial Communications
Bus & Motor
STARLINK V2MO, Unknown motor
Mass
575 kg wet, ~530 kg dry
Launch date (UTC)
2026-01-04 (2 months ago)
Launch vehicle
FALCON 9
Launch site
Air Force Eastern Test Range (AFETR)
Object type
Payload
Rocket body
Debris
Shape & HBR
Box + 2 Pan, 17.7 m
Radar Cross Section
36.964 m²

Expand to show TLE details & history
Last TLE update: 7 hours ago

TLE from 7 hours ago
0 STARLINK-36445
1 67313U 26002J   26062.86125691  .00028539  00000-0  10420-2 0  9990
2 67313  42.9973 358.5189 0000867 149.7914 210.2988 15.27599899 10343
Epoch: 2026-03-03T20:40Z
TLE epoch observation values (Epoch: 2026-03-03T20:40:12.597Z)
Latitude
0.00002°
Longitude
-113.16781°
Altitude
483.278 km
Speed
7.625 km/s
True Right ascension
23h 54m 04s
True Declination
0° 00' 00"
Sunlit
Object was in daylight at epoch
Visualization orbit readout
Latitude
Unknown
Longitude
Unknown
Altitude
Unknown
Speed
Unknown
Apparent Right ascension
Unknown
Apparent Declination
Unknown
Sunlit
N/A
Visualization observer readout
Local Sidereal Time
07:38:02
Azimuth
Unknown
Elevation
Unknown
Doppler factor
Unknown
Orbital elements
Apogee altitude
485.53 km
Perigee altitude
484.34 km
Semi-major axis
6,863.072 km
Eccentricity
0.00009
Inclination
42.9973°
RAAN
358.5189°
Arg. of periapsis
149.7914°
True anomaly
210.29379°
Mean anomaly
210.2988°
Eccentric anomaly
210.29629°
Mean motion
3.81738 °/min
Orbital period
94.31 mins
BSTAR
0.001042
Loading maneuver chart data...
Computing Atmospheric mass density...
Loading historical data...
Loading historical data...
Loading historical data...
Loading historical data...
Loading historical data...
Loading historical data...
Loading historical data...

Documentation

Showing up to 5 results
|